Back to catalog

STARLINK-30368

AliveCommunicationsVLEO
NORAD 57752·PAYLOAD·🇺🇸 United States

Launched Sep 1, 2023 from Cape Canaveral Space Force Station

Loading…

Next Passes (next 24 hours)

TLE

FreshSource: CelesTrak SupGP

Epoch: Sep 14, 2026, 14:09 UTC

1 57752C 23131W   26257.59006944  .00003765  00000+0  13642-3 0  2571
2 57752  43.0025 185.8714 0001414 271.4714  77.3915 15.27564604    15

Track STARLINK-30368 in real time with AllMySat

Download on the App Store